PulseSat

PulseSat

COSMOS 2461 (735)

Last updated on March 21, 2019, 3:13 a.m. UTC

1 36401U 10007B   19078.44264794 -.00000036  00000-0  10000-3 0  9991
2 36401  65.7154  43.1383 0005746  40.6262 197.7258  2.13102220 70412
UTC
Height (km)
Latitude
Longitude
Inclination
Orbital Period

Next 30 passes for location: Hong Kong

Rise time Rise Azimuth (degrees) Set time Set Azimuth (degrees) Duration Max altitude (degrees)

No matching passes for this satellites

PulseSat

PulseSat is the new satellites software and hardware trackering solution by Pulsely.
Satellite Two Line Element Set source: US Air Force Space Command

Download PulseSat for iOS
© 2017 Pulsely Limited